ARIANE 42P DEB, 44508

Orbit data source: Space-Track

ARIANE 42P DEB, 44508 is space debris in LEO originally from a launch on Mon, 10 Aug 1992 UTC launched from the French Guiana (FRGUI). Debris objects in space refer to the collection of defunct objects orbiting the Earth. Examples of debris include non-operational satellites, rocket bodies, and fragments generated from explosions, collisions, or faulty payload assembly.

Loading next visibility...
Identifier
44508, 1992-052F
Orbit
LEO
Country
Flag of FRFR
Related business
Manufacturer
ArianeGroup
Mission
Spacecraft
Bus & Motor
Unknown
Mass
Unknown
Launch date (UTC)
1992-08-10 (34 years ago)
Launch vehicle
Unknown
Launch site
French Guiana (FRGUI)
Object type
Payload
Rocket body
Debris
Shape & HBR
Unknown shape, 0.2 m
Radar Cross Section
Small (<0.1 m²)

Expand to show TLE details & history
Last TLE update: 1 day ago

TLE from 1 day ago
0 ARIANE 42P DEB
1 44508U 92052F   26093.20288216  .00004854  00000-0  17053-1 0  9996
2 44508  66.0125 171.8026 0403850 316.8794  40.1226 12.73000369 93622
Epoch: 2026-04-03T04:52Z
TLE epoch observation values (Epoch: 2026-04-03T04:52:09.018Z)
Latitude
-0.0001°
Longitude
-92.7754°
Altitude
1,137.866 km
Speed
7.393 km/s
True Right ascension
11h 27m 12s
True Declination
0° 00' 00"
Sunlit
Object was in full shadow at epoch
Visualization orbit readout
Latitude
Unknown
Longitude
Unknown
Altitude
Unknown
Speed
Unknown
Apparent Right ascension
Unknown
Apparent Declination
Unknown
Sunlit
N/A
Visualization observer readout
Local Sidereal Time
19:10:55
Azimuth
Unknown
Elevation
Unknown
Doppler factor
Unknown
Orbital elements
Apogee altitude
1,681.151 km
Perigee altitude
1,055.47 km
Semi-major axis
7,746.447 km
Eccentricity
0.04039
Inclination
66.0125°
RAAN
171.8026°
Arg. of periapsis
316.8794°
True anomaly
43.22288°
Mean anomaly
40.1226°
Eccentric anomaly
41.66068°
Mean motion
3.18339 °/min
Orbital period
113.09 mins
BSTAR
0.017053
Loading maneuver chart data...
Computing Atmospheric mass density...
Loading historical data...
Loading historical data...
Loading historical data...
Loading historical data...
Loading historical data...
Loading historical data...
Loading historical data...

Documentation

Showing up to 5 results
|